FW6809 Weather Reports


Display with metric or nautical units.
time (UTC)temp
F
wind
direction
speed
MPH
gust
MPH
rain 1hr
in
rain 24hr
in
rain mn
in
humidity
%
barometer
mb
20200401060555 43 0 1.0 4.0 0.00 0.52 0.00 79 1010.0
20200401060208 43 0 0.0 3.0 0.00 0.52 0.00 79 1010.0
20200401055543 43 0 0.0 3.0 0.00 0.52 0.00 77 1010.0
20200401055043 43 133 0.0 6.0 0.00 0.52 0.00 78 1010.1
20200401054653 43 137 1.0 6.0 0.00 0.52 0.00 78 1010.1
20200401054050 43 0 0.0 3.0 0.00 0.52 0.00 77 1010.0
20200401053549 43 0 0.0 4.0 0.00 0.52 0.00 76 1010.0
20200401053056 43 0 1.0 5.0 0.00 0.52 0.00 76 1010.0
20200401052546 43 104 1.0 5.0 0.00 0.52 0.00 76 1010.2
20200401052043 43 120 0.0 7.0 0.00 0.52 0.00 77 1010.3
20200401051636 43 141 1.0 7.0 0.00 0.52 0.00 76 1010.2
20200401051043 43 0 0.0 6.0 0.00 0.52 0.00 75 1010.2
20200401050550 44 126 1.0 8.0 0.00 0.52 0.00 74 1010.2
20200401050145 44 116 1.0 8.0 0.00 0.52 0.00 75 1010.2
20200401045546 44 111 0.0 3.0 0.00 0.52 0.00 76 1010.1
20200401045043 44 139 0.0 5.0 0.00 0.52 0.00 75 1010.0
20200401044628 44 0 0.0 8.0 0.00 0.52 0.00 76 1010.1
20200401044051 45 134 2.0 8.0 0.00 0.52 0.00 76 1010.2
20200401043626 45 91 1.0 7.0 0.00 0.52 0.00 78 1010.3
20200401043128 45 164 0.0 7.0 0.00 0.52 0.00 78 1010.3
20200401042543 44 162 1.0 7.0 0.00 0.52 0.00 78 1010.3
20200401042042 44 126 1.0 5.0 0.00 0.52 0.00 79 1010.3
20200401041621 44 0 0.0 5.0 0.00 0.52 0.00 79 1010.3
20200401041045 44 133 0.0 4.0 0.00 0.52 0.00 80 1010.3
20200401040547 44 0 1.0 4.0 0.00 0.52 0.00 80 1010.3
20200401040122 45 131 0.0 4.0 0.00 0.52 0.00 81 1010.3
20200401035556 45 0 0.0 3.0 0.00 0.52 0.52 80 1010.3
20200401035104 45 113 0.0 3.0 0.00 0.52 0.52 79 1010.2
20200401034622 45 124 0.0 7.0 0.00 0.52 0.52 78 1010.3
20200401034104 45 0 1.0 7.0 0.00 0.52 0.52 79 1010.3
20200401033553 45 197 1.0 3.0 0.00 0.52 0.52 80 1010.1
20200401033109 46 0 1.0 5.0 0.00 0.52 0.52 80 1010.2
20200401032547 46 142 1.0 6.0 0.00 0.52 0.52 80 1010.1
20200401032046 46 139 1.0 7.0 0.00 0.52 0.52 80 1010.1
20200401031622 46 153 1.0 7.0 0.00 0.52 0.52 80 1010.1
20200401031051 45 134 2.0 6.0 0.00 0.52 0.52 80 1010.1
20200401030545 45 0 1.0 4.0 0.00 0.52 0.52 81 1009.8
20200401030219 45 116 1.0 7.0 0.00 0.52 0.52 81 1010.0
20200401025543 45 171 0.0 7.0 0.00 0.52 0.52 82 1010.0
20200401025044 45 90 1.0 4.0 0.00 0.52 0.52 81 1009.8
20200401024643 45 127 0.0 3.0 0.00 0.52 0.52 82 1009.8
20200401024056 45 0 0.0 3.0 0.00 0.52 0.52 81 1009.7
20200401023543 45 139 1.0 10.0 0.00 0.52 0.52 81 1009.8
20200401023121 45 142 2.0 10.0 0.00 0.52 0.52 80 1009.7
20200401022546 45 0 0.0 6.0 0.00 0.52 0.52 79 1009.7
20200401022045 45 123 0.0 15.0 0.00 0.52 0.52 80 1009.7
20200401021558 45 155 2.0 15.0 0.00 0.52 0.52 80 1009.6
20200401021049 45 0 0.0 5.0 0.00 0.52 0.52 82 1009.6
20200401020602 45 148 1.0 8.0 0.00 0.52 0.52 82 1009.7
20200401020150 45 6 3.0 8.0 0.00 0.52 0.52 82 1009.7
20200401015548 45 98 0.0 6.0 0.00 0.52 0.52 84 1009.6
20200401015047 45 0 1.0 6.0 0.00 0.52 0.52 84 1009.4
20200401014618 45 145 2.0 5.0 0.00 0.52 0.52 84 1009.3
20200401014050 45 137 1.0 3.0 0.00 0.52 0.52 85 1009.2
20200401013552 45 102 0.0 3.0 0.00 0.52 0.52 84 1009.2
20200401013143 45 122 0.0 7.0 0.00 0.52 0.52 85 1009.2
20200401012546 45 102 1.0 7.0 0.00 0.52 0.52 85 1009.1
20200401012050 45 130 1.0 3.0 0.00 0.52 0.52 85 1009.1
20200401011643 45 117 0.0 8.0 0.00 0.52 0.52 85 1008.9
20200401011052 45 126 2.0 8.0 0.00 0.52 0.52 85 1008.9
20200401010548 45 0 0.0 3.0 0.00 0.52 0.52 85 1008.9
20200401010207 45 0 1.0 3.0 0.00 0.52 0.52 85 1008.7
20200401005545 45 101 0.0 3.0 0.00 0.52 0.52 85 1008.8
20200401005046 45 0 1.0 7.0 0.00 0.52 0.52 84 1008.7
20200401004559 45 117 2.0 7.0 0.00 0.52 0.52 84 1008.6
20200401004042 45 106 0.0 6.0 0.00 0.52 0.52 84 1008.5
20200401003543 46 130 2.0 6.0 0.00 0.52 0.52 84 1008.5
20200401003140 46 176 0.0 8.0 0.00 0.52 0.52 86 1008.4
20200401002545 46 0 1.0 8.0 0.00 0.52 0.52 86 1008.4
20200401002042 46 98 2.0 8.0 0.00 0.52 0.52 87 1008.2
20200401001602 46 89 1.0 6.0 0.00 0.52 0.52 87 1008.3
20200401001043 46 93 1.0 5.0 0.00 0.52 0.52 87 1008.1
20200401000545 47 107 2.0 5.0 0.00 0.52 0.52 86 1008.0
20200401000212 47 99 1.0 6.0 0.00 0.52 0.52 85 1008.0
20200331235545 47 103 1.0 7.0 0.00 0.52 0.52 84 1007.9
20200331235043 47 183 2.0 7.0 0.00 0.52 0.52 84 1007.9
20200331234602 48 150 1.0 5.0 0.00 0.52 0.52 85 1007.7
20200331234052 48 107 1.0 5.0 0.00 0.52 0.52 86 1007.6
20200331233604 48 102 1.0 8.0 0.00 0.52 0.52 86 1007.5
20200331233108 48 108 3.0 8.0 0.00 0.52 0.52 86 1007.4
20200331232607 48 143 1.0 9.0 0.00 0.52 0.52 86 1007.3
20200331232105 48 89 2.0 9.0 0.00 0.52 0.52 87 1007.0
20200331231703 48 105 2.0 6.0 0.00 0.52 0.52 87 1007.0
20200331231042 48 0 1.0 9.0 0.00 0.52 0.52 87 1006.8
20200331230545 48 122 1.0 9.0 0.00 0.52 0.52 87 1006.7
20200331230106 48 107 0.0 3.0 0.00 0.52 0.52 87 1006.7
20200331225543 48 94 1.0 4.0 0.00 0.52 0.52 88 1006.5
20200331225049 49 89 1.0 4.0 0.00 0.52 0.52 88 1006.4
20200331224653 49 95 0.0 3.0 0.00 0.52 0.52 88 1006.2
20200331224044 49 92 0.0 3.0 0.00 0.52 0.52 89 1006.2
20200331223542 48 251 0.0 3.0 0.00 0.52 0.52 89 1006.0
20200331223218 48 0 0.0 6.0 0.00 0.52 0.52 89 1006.0
20200331222544 48 95 1.0 7.0 0.00 0.52 0.52 89 1005.9
20200331222043 48 101 1.0 7.0 0.00 0.52 0.52 89 1005.9
20200331221639 48 105 0.0 2.0 0.00 0.52 0.52 89 1005.9
20200331221047 48 108 0.0 2.0 0.00 0.52 0.52 89 1005.7
20200331220548 48 90 0.0 2.0 0.00 0.52 0.52 89 1005.7
20200331220340 48 108 0.0 4.0 0.00 0.52 0.52 89 1005.7
20200331215551 48 91 0.0 6.0 0.00 0.52 0.52 89 1005.7
20200331215055 48 92 1.0 6.0 0.00 0.52 0.52 89 1005.7
20200331214614 48 78 2.0 5.0 0.00 0.52 0.52 88 1005.7
20200331214045 48 79 0.0 4.0 0.01 0.52 0.52 89 1005.8
20200331213542 49 113 1.0 5.0 0.01 0.52 0.52 88 1005.7
20200331213131 49 94 2.0 5.0 0.01 0.52 0.52 88 1005.7
20200331212541 49 101 1.0 3.0 0.02 0.52 0.52 88 1005.7
20200331212043 49 0 1.0 5.0 0.02 0.52 0.52 88 1005.5
20200331211648 49 88 1.0 5.0 0.03 0.52 0.52 88 1005.3
20200331211044 49 106 0.0 2.0 0.03 0.52 0.52 88 1005.3
20200331210546 50 137 1.0 2.0 0.03 0.52 0.52 87 1005.2
20200331210211 50 96 0.0 2.0 0.03 0.52 0.52 88 1005.2
20200331205559 50 84 0.0 6.0 0.03 0.52 0.52 87 1005.0
20200331205043 50 128 0.0 6.0 0.03 0.52 0.52 87 1004.9
20200331204614 50 129 1.0 6.0 0.03 0.52 0.52 86 1004.9
20200331204049 51 102 1.0 6.0 0.02 0.52 0.52 85 1004.9
20200331203542 51 113 1.0 5.0 0.02 0.52 0.52 84 1004.9
20200331203111 52 76 1.0 4.0 0.02 0.52 0.52 82 1004.8
20200331202543 53 0 0.0 4.0 0.01 0.51 0.51 81 1004.8
20200331202048 54 0 0.0 4.0 0.01 0.51 0.51 78 1004.6
20200331201553 54 94 0.0 1.0 0.00 0.50 0.50 76 1004.5
20200331201045 54 131 0.0 2.0 0.00 0.50 0.50 76 1004.3
20200331200544 54 158 0.0 2.0 0.00 0.50 0.50 74 1003.9
20200331200141 54 160 0.0 2.0 0.00 0.50 0.50 74 1003.9
20200331195543 54 113 0.0 3.0 0.00 0.50 0.50 74 1003.8
20200331195046 54 105 1.0 3.0 0.00 0.50 0.50 73 1003.8
20200331194627 55 100 0.0 4.0 0.00 0.50 0.50 74 1003.6
20200331194042 55 170 1.0 4.0 0.00 0.50 0.50 72 1003.4
20200331193544 55 130 0.0 4.0 0.00 0.50 0.50 72 1003.4
20200331193129 55 205 1.0 4.0 0.00 0.50 0.50 72 1003.4
20200331192542 55 121 0.0 1.0 0.00 0.50 0.50 71 1003.4
20200331192043 55 0 0.0 1.0 0.00 0.50 0.50 73 1003.4
20200331191649 55 0 0.0 2.0 0.00 0.50 0.50 71 1003.6
20200331191045 55 121 0.0 4.0 0.00 0.50 0.50 71 1003.7
20200331190543 55 105 0.0 4.0 0.00 0.50 0.50 72 1003.9
20200331190129 55 105 0.0 7.0 0.00 0.50 0.50 71 1003.8
20200331185603 55 0 1.0 7.0 0.00 0.50 0.50 72 1003.7
20200331185110 55 165 2.0 6.0 0.00 0.50 0.50 70 1003.7
20200331184545 55 169 3.0 8.0 0.00 0.50 0.50 70 1003.6
20200331184114 55 188 3.0 8.0 0.00 0.50 0.50 69 1003.6
20200331183551 56 148 2.0 9.0 0.00 0.50 0.50 70 1003.7
20200331183224 56 131 2.0 9.0 0.00 0.50 0.50 68 1003.7
20200331182544 56 190 4.0 15.0 0.00 0.50 0.50 69 1003.5
20200331182046 57 246 5.0 15.0 0.00 0.50 0.50 67 1003.4
20200331181607 57 113 3.0 13.0 0.00 0.50 0.50 66 1003.5
20200331181052 58 208 3.0 8.0 0.00 0.50 0.50 68 1003.5
20200331180549 57 203 3.0 8.0 0.00 0.50 0.50 68 1003.4
20200331180146 57 122 3.0 9.0 0.00 0.50 0.50 70 1003.6
20200331175545 56 258 3.0 10.0 0.00 0.50 0.50 70 1003.5
20200331175042 56 109 4.0 11.0 0.00 0.50 0.50 71 1003.5
20200331174604 55 162 6.0 13.0 0.00 0.50 0.50 71 1003.2
20200331174043 55 191 5.0 13.0 0.00 0.50 0.50 71 1003.0
20200331173547 54 221 6.0 14.0 0.00 0.50 0.50 72 1003.3
20200331173132 54 115 6.0 14.0 0.00 0.50 0.50 72 1003.3
20200331172541 54 283 5.0 12.0 0.00 0.50 0.50 72 1003.6
20200331172044 54 330 5.0 13.0 0.00 0.50 0.50 72 1004.2
20200331171629 54 174 4.0 13.0 0.00 0.50 0.50 73 1004.3
20200331171046 54 217 3.0 10.0 0.00 0.50 0.50 76 1004.6
20200331170548 54 192 5.0 10.0 0.00 0.50 0.50 74 1004.8
20200331170108 54 166 3.0 10.0 0.00 0.50 0.50 76 1005.1
20200331165627 54 169 4.0 9.0 0.00 0.50 0.50 77 1005.2
20200331165044 53 152 3.0 11.0 0.01 0.50 0.50 80 1005.2
20200331164707 52 320 3.0 15.0 0.01 0.50 0.50 79 1005.3
20200331164059 52 35 6.0 15.0 0.01 0.50 0.50 79 1005.0
20200331163545 52 201 7.0 15.0 0.02 0.50 0.50 80 1004.9
20200331163122 52 137 5.0 12.0 0.04 0.50 0.50 80 1005.1
20200331162542 51 286 4.0 14.0 0.05 0.50 0.50 84 1005.5
20200331162050 51 131 4.0 14.0 0.06 0.50 0.50 83 1005.8
20200331161549 50 213 3.0 15.0 0.12 0.50 0.50 85 1006.5
20200331161046 50 160 4.0 15.0 0.14 0.50 0.50 85 1006.8
20200331160550 50 184 4.0 14.0 0.15 0.50 0.50 84 1007.0
20200331160054 50 76 3.0 10.0 0.16 0.50 0.50 85 1007.2
20200331155545 50 79 2.0 7.0 0.17 0.50 0.50 89 1007.8
20200331155105 49 89 1.0 3.0 0.17 0.49 0.49 89 1008.6
20200331154655 49 77 0.0 0.0 0.19 0.49 0.49 89 1009.9
20200331154048 49 196 0.0 1.0 0.22 0.49 0.49 88 1010.7
20200331153546 49 0 0.0 4.0 0.24 0.48 0.48 88 1010.8
20200331153107 49 0 2.0 4.0 0.24 0.46 0.46 87 1011.1
20200331152545 49 211 0.0 5.0 0.27 0.45 0.45 86 1010.1
20200331152057 49 333 1.0 5.0 0.27 0.43 0.43 86 1010.5
20200331151618 49 199 0.0 6.0 0.24 0.38 0.38 85 1009.3
20200331151048 49 238 3.0 17.0 0.24 0.36 0.36 84 1010.8
20200331150544 49 243 1.0 17.0 0.25 0.35 0.35 82 1007.1
20200331150148 49 330 4.0 13.0 0.27 0.34 0.34 82 1005.5
20200331145549 49 247 5.0 13.0 0.26 0.33 0.33 82 1005.6
20200331145055 49 158 2.0 13.0 0.26 0.32 0.32 83 1005.8
20200331144623 49 204 4.0 13.0 0.25 0.30 0.30 81 1006.4
20200331144043 49 172 2.0 6.0 0.23 0.27 0.27 81 1007.0
20200331143546 49 186 2.0 7.0 0.21 0.24 0.24 80 1007.6
20200331143149 49 172 1.0 7.0 0.18 0.21 0.21 82 1007.6
20200331142544 49 154 1.0 5.0 0.15 0.18 0.18 83 1007.8
20200331142049 49 215 1.0 6.0 0.13 0.16 0.16 81 1007.5
20200331141717 50 160 0.0 6.0 0.11 0.14 0.14 80 1008.0
20200331141049 50 138 1.0 4.0 0.09 0.12 0.12 79 1008.1
20200331140545 51 162 1.0 10.0 0.07 0.10 0.10 76 1008.4
20200331140053 53 0 3.0 10.0 0.04 0.07 0.07 72 1008.7
20200331135542 53 136 1.0 10.0 0.04 0.07 0.07 71 1008.5
20200331135050 53 158 2.0 12.0 0.02 0.05 0.05 65 1007.5
20200331134638 54 181 5.0 12.0 0.02 0.05 0.05 63 1006.4
20200331134045 56 226 3.0 16.0 0.01 0.04 0.04 57 1005.9
20200331133547 56 203 4.0 16.0 0.00 0.03 0.03 51 1006.4
20200331133113 57 234 4.0 8.0 0.00 0.03 0.03 49 1006.0
20200331132544 57 186 4.0 11.0 0.00 0.03 0.03 49 1006.0
20200331132043 57 121 4.0 11.0 0.00 0.03 0.03 49 1006.1
20200331131607 57 224 3.0 8.0 0.00 0.03 0.03 48 1006.4
20200331131041 57 181 3.0 8.0 0.00 0.03 0.03 49 1006.7
20200331130541 56 210 2.0 8.0 0.00 0.03 0.03 50 1007.2
20200331130104 56 187 3.0 9.0 0.00 0.03 0.03 51 1007.5
20200331125542 56 160 3.0 10.0 0.00 0.03 0.03 50 1007.5
20200331125044 56 212 4.0 10.0 0.00 0.03 0.03 50 1008.0
20200331124557 56 198 3.0 8.0 0.00 0.03 0.03 52 1008.2
20200331124042 55 266 3.0 6.0 0.00 0.03 0.03 54 1008.3
20200331123543 55 276 1.0 4.0 0.00 0.03 0.03 55 1008.5
20200331123138 55 101 1.0 4.0 0.00 0.03 0.03 59 1009.0
20200331122544 54 143 1.0 4.0 0.00 0.03 0.03 60 1009.5
20200331122051 54 172 1.0 6.0 0.00 0.03 0.03 61 1009.6
20200331121557 54 164 2.0 7.0 0.00 0.03 0.03 61 1009.4
20200331121053 53 185 2.0 7.0 0.00 0.03 0.03 63 1009.2
20200331120543 53 150 2.0 7.0 0.00 0.03 0.03 66 1009.1
20200331120127 53 223 2.0 6.0 0.00 0.03 0.03 67 1009.2
20200331115550 52 177 1.0 3.0 0.00 0.03 0.03 68 1009.2
20200331115044 52 198 0.0 4.0 0.00 0.03 0.03 70 1009.5
20200331114552 51 181 1.0 4.0 0.00 0.03 0.03 74 1009.6
20200331114057 51 197 0.0 2.0 0.00 0.03 0.03 74 1009.9
20200331113543 50 188 0.0 1.0 0.00 0.03 0.03 78 1009.9
20200331113051 49 155 0.0 1.0 0.00 0.03 0.03 84 1009.8
20200331112547 50 0 0.0 1.0 0.00 0.03 0.03 88 1010.0
20200331112042 49 0 0.0 1.0 0.00 0.03 0.03 88 1010.2
20200331111618 49 156 0.0 1.0 0.00 0.03 0.03 86 1010.3
20200331111045 49 156 0.0 1.0 0.00 0.03 0.03 86 1010.3
20200331110547 49 0 0.0 1.0 0.00 0.03 0.03 88 1010.4
20200331110059 49 162 0.0 1.0 0.00 0.03 0.03 88 1010.7
20200331105543 49 0 0.0 1.0 0.00 0.03 0.03 90 1010.7
20200331105051 49 162 0.0 1.0 0.00 0.03 0.03 91 1010.8
20200331104725 49 0 0.0 1.0 0.00 0.03 0.03 91 1011.0
20200331104045 49 0 0.0 1.0 0.00 0.03 0.03 91 1010.9
20200331103544 49 164 0.0 1.0 0.00 0.03 0.03 91 1011.0
20200331103134 49 164 0.0 0.0 0.00 0.03 0.03 91 1011.4
20200331102542 49 0 0.0 0.0 0.00 0.03 0.03 91 1011.7
20200331102043 49 0 0.0 0.0 0.00 0.03 0.03 91 1011.8
20200331101726 49 0 0.0 0.0 0.00 0.03 0.03 91 1012.0
20200331101101 49 0 0.0 0.0 0.00 0.03 0.03 91 1012.1
20200331100551 49 0 0.0 0.0 0.00 0.03 0.03 91 1012.2
20200331100050 49 0 0.0 0.0 0.00 0.03 0.03 91 1012.3
20200331095550 49 0 0.0 0.0 0.00 0.03 0.03 91 1012.3
20200331095052 49 0 0.0 0.0 0.00 0.03 0.03 91 1012.3
20200331094721 49 0 0.0 0.0 0.00 0.03 0.03 91 1012.5
20200331094043 49 0 0.0 0.0 0.00 0.03 0.03 91 1012.8
20200331093542 49 0 0.0 0.0 0.00 0.03 0.03 91 1012.7
20200331093147 49 163 0.0 0.0 0.00 0.03 0.03 90 1012.4
20200331092548 49 0 0.0 0.0 0.00 0.03 0.03 90 1012.2
20200331092044 49 0 0.0 0.0 0.00 0.03 0.03 90 1012.4
20200331091624 49 0 0.0 0.0 0.00 0.03 0.03 90 1012.6
20200331091044 49 0 0.0 0.0 0.00 0.03 0.03 90 1012.7
20200331090545 49 0 0.0 0.0 0.01 0.03 0.03 90 1012.7
20200331090122 49 0 0.0 1.0 0.01 0.03 0.03 90 1012.6
20200331085543 49 0 0.0 1.0 0.01 0.03 0.03 89 1012.5
20200331085044 49 169 0.0 0.0 0.02 0.03 0.03 88 1012.9
20200331084621 49 0 0.0 0.0 0.02 0.03 0.03 88 1013.1
20200331084048 49 0 0.0 0.0 0.02 0.03 0.03 88 1013.2
20200331083544 49 0 0.0 0.0 0.02 0.03 0.03 88 1013.2
20200331083118 49 0 0.0 0.0 0.02 0.03 0.03 88 1013.3
20200331082606 49 0 0.0 0.0 0.03 0.03 0.03 88 1013.1
20200331082059 50 0 0.0 0.0 0.03 0.03 0.03 88 1013.1
20200331081911 50 0 0.0 0.0 0.03 0.03 0.03 88 1013.2
20200331081053 50 169 0.0 1.0 0.02 0.02 0.02 87 1013.3
20200331080542 50 169 0.0 1.0 0.02 0.02 0.02 88 1013.5
20200331080136 50 157 0.0 0.0 0.02 0.02 0.02 89 1013.8
20200331075542 50 0 0.0 0.0 0.02 0.02 0.02 88 1014.1
20200331075058 50 0 0.0 1.0 0.01 0.01 0.01 88 1014.5
20200331074606 50 157 0.0 1.0 0.01 0.01 0.01 87 1014.3
20200331074043 50 0 0.0 0.0 0.01 0.01 0.01 86 1014.5
20200331073548 51 0 0.0 0.0 0.01 0.01 0.01 86 1014.7
20200331073135 51 0 0.0 0.0 0.01 0.01 0.01 85 1014.7
20200331072550 51 0 0.0 0.0 0.00 0.00 0.00 84 1014.7
20200331072126 51 0 0.0 0.0 0.00 0.00 0.00 83 1014.3
20200331071655 51 0 0.0 0.0 0.00 0.00 0.00 82 1014.0
20200331071046 51 0 0.0 0.0 0.00 0.00 0.00 80 1013.9
20200331070541 52 157 0.0 0.0 0.00 0.00 0.00 78 1014.0
20200331070136 52 0 0.0 0.0 0.00 0.00 0.00 77 1014.1
20200331065555 52 0 0.0 0.0 0.00 0.00 0.00 75 1014.1
20200331065044 52 0 0.0 0.0 0.00 0.00 0.00 74 1014.0
20200331064606 52 157 0.0 0.0 0.00 0.00 0.00 74 1013.8
20200331064042 52 0 0.0 0.0 0.00 0.00 0.00 70 1013.7
20200331063544 52 157 0.0 0.0 0.00 0.00 0.00 73 1013.6
20200331063241 52 0 0.0 0.0 0.00 0.00 0.00 71 1013.5
20200331062544 52 0 0.0 0.0 0.00 0.00 0.00 73 1013.6
20200331062044 52 0 0.0 0.0 0.00 0.00 0.00 74 1013.8
20200331061612 52 0 0.0 0.0 0.00 0.00 0.00 74 1014.0
20200331061044 52 0 0.0 0.0 0.00 0.00 0.00 73 1014.1